GW5385 Weather Reports


Display with metric or nautical units.
time (UTC)temp
F
wind
direction
speed
MPH
gust
MPH
rain 1hr
in
rain 24hr
in
rain mn
in
humidity
%
barometer
mb
20260903201554 72 269 3.0 8.0 0.00 0.04 0.00 36 1010.0
20260903200023 73 248 1.0 7.0 0.00 0.04 0.00 36 1010.1
20260903194523 74 269 5.0 12.0 0.00 0.04 0.00 35 1010.2
20260903193020 72 302 3.0 14.0 0.00 0.04 0.00 36 1010.1
20260903191519 74 245 4.0 8.0 0.00 0.04 0.00 34 1010.1
20260903190018 74 238 5.0 13.0 0.00 0.04 0.00 35 1010.0
20260903184515 72 238 8.0 16.0 0.00 0.04 0.00 36 1010.0
20260903183010 72 246 9.0 15.0 0.00 0.04 0.00 36 1009.8
20260903181509 72 250 11.0 18.0 0.00 0.04 0.00 36 1009.8
20260903180007 71 210 5.0 13.0 0.00 0.04 0.00 39 1009.9
20260903174505 71 233 5.0 13.0 0.00 0.04 0.00 40 1010.2
20260903173101 70 222 5.0 10.0 0.00 0.04 0.00 43 1010.2
20260903171558 68 246 2.0 8.0 0.00 0.04 0.00 49 1010.3
20260903170054 66 231 3.0 11.0 0.00 0.04 0.00 50 1010.4
20260903164548 64 226 3.0 7.0 0.00 0.04 0.00 53 1010.5
20260903163039 61 236 1.0 4.0 0.00 0.04 0.00 57 1010.3
20260903161536 57 257 0.0 0.0 0.00 0.04 0.00 68 1010.4
20260903160031 54 243 0.0 1.0 0.00 0.04 0.00 71 1010.5
20260903154528 53 27 0.0 0.0 0.00 0.04 0.00 76 1010.4
20260903153022 52 27 0.0 3.0 0.00 0.04 0.00 77 1010.5
20260903151521 51 191 0.0 1.0 0.00 0.04 0.00 80 1010.6
20260903150035 50 174 0.0 4.0 0.00 0.04 0.00 80 1010.5
20260903144526 50 173 0.0 2.0 0.00 0.04 0.00 83 1010.5
20260903143048 48 156 0.0 1.0 0.00 0.04 0.00 86 1010.3
20260903141548 44 233 0.0 1.0 0.00 0.04 0.00 90 1010.3
20260903140033 42 220 0.0 0.0 0.00 0.04 0.00 91 1010.2
20260903134512 41 338 0.0 0.0 0.00 0.04 0.00 90 1010.0
20260903133008 39 100 0.0 0.0 0.00 0.04 0.00 90 1009.8
20260903131507 38 100 0.0 2.0 0.00 0.04 0.00 89 1009.6
20260903130005 38 179 0.0 1.0 0.00 0.04 0.00 90 1009.3
20260903124504 38 129 0.0 0.0 0.00 0.04 0.00 89 1009.2
20260903123100 38 134 0.0 1.0 0.00 0.04 0.00 89 1009.1
20260903123001 38 241 0.0 1.0 0.00 0.04 0.00 89 1009.1
20260903121600 38 241 0.0 2.0 0.00 0.04 0.00 89 1008.8
20260903120113 38 153 0.0 3.0 0.00 0.04 0.00 89 1008.9
20260903114557 38 233 0.0 1.0 0.00 0.04 0.00 89 1009.0
20260903113058 38 285 0.0 0.0 0.00 0.04 0.00 89 1009.0
20260903111552 38 285 0.0 1.0 0.00 0.04 0.00 88 1009.2
20260903110053 38 300 0.0 3.0 0.00 0.04 0.00 88 1009.2
20260903104546 39 297 0.0 2.0 0.00 0.04 0.00 88 1009.4
20260903103042 40 174 0.0 0.0 0.00 0.04 0.00 88 1009.4
20260903101540 40 222 0.0 1.0 0.00 0.04 0.00 87 1009.3
20260903100038 40 217 0.0 0.0 0.00 0.04 0.00 86 1009.1
20260903094539 42 217 0.0 0.0 0.00 0.04 0.00 87 1009.0
20260903093029 42 204 0.0 1.0 0.00 0.04 0.00 85 1009.1
20260903091528 44 355 0.0 2.0 0.00 0.04 0.00 84 1008.8
20260903090024 43 53 0.0 1.0 0.00 0.04 0.00 84 1008.8
20260903084538 45 152 0.0 0.0 0.00 0.04 0.00 81 1008.7
20260903083014 47 226 0.0 2.0 0.00 0.04 0.00 80 1008.7
20260903081512 47 238 0.0 3.0 0.00 0.04 0.00 80 1008.7
20260903080009 48 224 1.0 4.0 0.00 0.04 0.00 80 1008.7
20260903074506 49 229 1.0 7.0 0.00 0.04 0.00 80 1008.4
20260903073006 50 177 0.0 3.0 0.00 0.04 0.00 81 1008.5
20260903071533 50 232 0.0 1.0 0.00 0.04 0.00 79 1008.5
20260903070032 51 259 0.0 2.0 0.00 0.04 0.00 78 1008.2
20260903064558 51 278 0.0 1.0 0.00 0.04 0.00 77 1008.6
20260903063107 50 233 0.0 0.0 0.00 0.04 0.00 80 1008.7
20260903061534 51 233 0.0 0.0 0.00 0.04 0.00 78 1008.8
20260903060029 52 233 0.0 1.0 0.00 0.04 0.04 75 1008.3
20260903054519 53 236 2.0 5.0 0.00 0.04 0.04 73 1008.6
20260903053028 54 239 3.0 5.0 0.00 0.04 0.04 73 1008.8
20260903051517 53 255 2.0 3.0 0.00 0.04 0.04 73 1008.9
20260903050016 54 240 4.0 7.0 0.00 0.04 0.04 71 1008.9
20260903044514 55 246 6.0 18.0 0.00 0.04 0.04 68 1009.2
20260903043028 55 259 7.0 13.0 0.00 0.04 0.04 67 1009.2
20260903041513 55 224 9.0 21.0 0.00 0.04 0.04 66 1009.2
20260903040011 52 217 5.0 11.0 0.00 0.04 0.04 73 1009.2
20260903034509 52 241 3.0 6.0 0.00 0.04 0.04 74 1009.2
20260903033009 52 233 3.0 6.0 0.00 0.04 0.04 74 1009.1
20260903031507 52 227 3.0 6.0 0.00 0.04 0.04 75 1009.1
20260903030007 52 239 4.0 7.0 0.00 0.04 0.04 75 1008.4
20260903024505 53 247 1.0 5.0 0.00 0.04 0.04 74 1008.3
20260903023005 54 251 0.0 4.0 0.00 0.04 0.04 73 1008.8
20260903021509 56 252 3.0 14.0 0.00 0.04 0.04 70 1009.2
20260903020003 56 238 9.0 13.0 0.00 0.04 0.04 75 1008.9
20260903014605 57 266 10.0 15.0 0.00 0.04 0.04 76 1008.7
20260903013100 59 241 2.0 6.0 0.00 0.04 0.04 76 1008.8
20260903011604 60 184 1.0 3.0 0.01 0.04 0.04 71 1008.7
20260903010059 59 188 0.0 2.0 0.01 0.04 0.04 74 1008.3
20260903004555 59 50 0.0 2.0 0.01 0.04 0.04 77 1008.0
20260903003054 59 35 1.0 5.0 0.01 0.04 0.04 73 1007.7
20260903001554 59 20 1.0 3.0 0.02 0.03 0.03 70 1008.6
20260903000056 59 235 0.0 5.0 0.03 0.03 0.03 70 1009.5
20260902234522 59 247 4.0 13.0 0.03 0.03 0.03 73 1010.0
20260902233022 58 249 6.0 15.0 0.02 0.02 0.02 74 1009.5
20260902231518 59 201 15.0 28.0 0.01 0.01 0.01 72 1009.2
20260902230016 67 281 12.0 37.0 0.00 0.00 0.00 54 1008.1
20260902224516 80 169 6.0 10.0 0.00 0.00 0.00 23 1005.1
20260902223012 80 145 1.0 7.0 0.00 0.00 0.00 30 1004.5
20260902221507 81 155 3.0 7.0 0.00 0.00 0.00 29 1005.0
20260902220005 83 195 4.0 10.0 0.00 0.00 0.00 29 1005.2
20260902214503 84 171 4.0 9.0 0.00 0.00 0.00 29 1005.4
20260902213000 84 176 1.0 9.0 0.00 0.00 0.00 30 1005.5
20260902211608 84 247 3.0 13.0 0.00 0.00 0.00 30 1005.8
20260902210112 83 203 5.0 11.0 0.00 0.00 0.00 30 1006.1
20260902204545 82 151 3.0 8.0 0.00 0.00 0.00 31 1006.5
20260902203044 81 159 3.0 8.0 0.00 0.00 0.00 33 1006.8